Check out our new BloomSky Weather System.

Active alerts


No alerts


Thunder radar  blitzortung!


Rain radar more information rain snow radar


Visit our other weather sites:

Template documentation
and downloads

And another site



Weather Underground History page Text

Daily Summary for January 6, 2017 Units:  Metric    English   Both
« Previous Day
Next Day »
Daily Weekly Monthly Yearly Custom
  High: Low: Average:
Temperature: -17.8 °C -3.4 °C 1.3 °C
Dew Point: -17.8 °C -6.4 °C -1.3 °C
Humidity: Humidity % 74 % 83 %
Wind Speed: 0 km/h 0 km/h 8 km/h
Wind Gust: 0 km/h - -
Wind:- - WNW
Pressure: 0 hPa 1015.5 hPa -
Precipitation: 3.56 mm    
Historical Graphs
 
 
Tabular Data for January 6, 2017
Time Temperature Dew Point Pressure Wind Wind Speed Wind Gust Humidity Rainfall Rate (Hourly)
-17.8 °C -17.8 °C 0 hPa Calm     Humidity % 0 mm
00:02 6.3 °C 4.8 °C 1015.8 hPa NNE 4.8 km/h 14.5 km/h 90 % 0 mm
00:07 6.3 °C 4.6 °C 1015.8 hPa NNW 9.7 km/h 14.5 km/h 89 % 0 mm
00:12 6.3 °C 4.6 °C 1015.8 hPa NNW 8 km/h 14.5 km/h 89 % 0 mm
00:17 6.3 °C 4.6 °C 1015.8 hPa North 8 km/h 14.5 km/h 89 % 0 mm
00:22 6.3 °C 4.6 °C 1016.1 hPa NNW 6.4 km/h 14.5 km/h 89 % 0 mm
00:27 6.3 °C 4.6 °C 1016.1 hPa NNW 4.8 km/h 16.1 km/h 89 % 0 mm
00:32 6.3 °C 4.5 °C 1016.1 hPa North 9.7 km/h 16.1 km/h 88 % 0 mm
00:37 6.3 °C 4.5 °C 1016.1 hPa NNW 9.7 km/h 17.7 km/h 88 % 0 mm
00:42 6.3 °C 4.3 °C 1016.1 hPa NNE 8 km/h 17.7 km/h 87 % 0 mm
00:43 6.3 °C 4.3 °C 1016.1 hPa NW 4.8 km/h 17.7 km/h 87 % 0 mm
00:48 6.4 °C 4.2 °C 1016.1 hPa NW 11.3 km/h 17.7 km/h 86 % 0 mm
00:53 6.4 °C 4.2 °C 1015.8 hPa NW 11.3 km/h 17.7 km/h 86 % 0 mm
00:58 6.4 °C 4.1 °C 1015.8 hPa North 3.2 km/h 19.3 km/h 85 % 0 mm
01:03 6.4 °C 4.1 °C 1015.5 hPa NNW 3.2 km/h 19.3 km/h 85 % 0 mm
01:08 6.4 °C 4.1 °C 1015.5 hPa NNW 1.6 km/h 20.9 km/h 85 % 0 mm
01:13 6.4 °C 3.9 °C 1015.5 hPa NNE 1.6 km/h 24.1 km/h 84 % 0 mm
01:18 6.3 °C 3.8 °C 1015.8 hPa WNW 11.3 km/h 24.1 km/h 84 % 0 mm
01:23 6.3 °C 3.8 °C 1015.5 hPa North 4.8 km/h 24.1 km/h 84 % 0 mm
01:28 6.3 °C 3.8 °C 1015.8 hPa NNW 6.4 km/h 16.1 km/h 84 % 0 mm
01:33 6.3 °C 3.8 °C 1015.5 hPa NNW 6.4 km/h 16.1 km/h 84 % 0 mm
01:38 6.2 °C 3.7 °C 1015.5 hPa NW 4.8 km/h 16.1 km/h 84 % 0 mm
01:43 6.2 °C 3.7 °C 1015.8 hPa NNW 9.7 km/h 16.1 km/h 84 % 0 mm
01:48 6.1 °C 3.6 °C 1015.8 hPa NNE 3.2 km/h 19.3 km/h 84 % 0 mm
01:53 6.1 °C 3.6 °C 1015.8 hPa NW 1.6 km/h 19.3 km/h 84 % 0 mm
01:58 6.1 °C 3.4 °C 1015.5 hPa WNW 4.8 km/h 19.3 km/h 83 % 0 mm
02:03 5.9 °C 3.2 °C 1015.5 hPa North 6.4 km/h 14.5 km/h 83 % 0 mm
02:08 5.9 °C 3.1 °C 1015.8 hPa NW 3.2 km/h 12.9 km/h 82 % 0 mm
02:13 5.8 °C 3 °C 1015.8 hPa NW 4.8 km/h 20.9 km/h 82 % 0 mm
02:18 5.8 °C 3 °C 1015.8 hPa North 8 km/h 20.9 km/h 82 % 0 mm
02:25 5.8 °C 2.8 °C 1016.1 hPa North 3.2 km/h 20.9 km/h 81 % 0 mm
02:30 5.8 °C 2.8 °C 1015.8 hPa NNW 14.5 km/h 20.9 km/h 81 % 0 mm
02:35 5.8 °C 2.8 °C 1016.1 hPa West 4.8 km/h 20.9 km/h 81 % 0 mm
02:40 5.7 °C 2.7 °C 1016.1 hPa NNW 1.6 km/h 20.9 km/h 81 % 0 mm
02:45 5.8 °C 3 °C 1016.1 hPa NW 8 km/h 17.7 km/h 82 % 0 mm
02:50 5.7 °C 2.7 °C 1016.5 hPa WNW 8 km/h 14.5 km/h 81 % 0 mm
02:55 5.7 °C 2.5 °C 1016.8 hPa North 6.4 km/h 14.5 km/h 80 % 0 mm
03:00 5.7 °C 2.5 °C 1016.8 hPa ENE 3.2 km/h 14.5 km/h 80 % 0 mm
03:05 5.7 °C 2.7 °C 1016.5 hPa NW 1.6 km/h 24.1 km/h 81 % 0 mm
03:10 5.6 °C 2.6 °C 1016.8 hPa North 3.2 km/h 24.1 km/h 81 % 0 mm
03:15 5.6 °C 2.8 °C 1016.5 hPa NNW 11.3 km/h 24.1 km/h 82 % 0 mm
03:20 5.5 °C 2.5 °C 1016.5 hPa NW 3.2 km/h 17.7 km/h 81 % 0 mm
03:25 5.4 °C 2.6 °C 1016.5 hPa NNW 9.7 km/h 17.7 km/h 82 % 0 mm
03:30 5.2 °C 2.4 °C 1016.8 hPa NW 8 km/h 17.7 km/h 82 % 0 mm
03:35 5 °C 2.2 °C 1016.8 hPa NE 8 km/h 22.5 km/h 82 % 0 mm
03:40 4.8 °C 1.8 °C 1016.8 hPa NNW 11.3 km/h 22.5 km/h 81 % 0 mm
03:45 4.5 °C 1.5 °C 1016.8 hPa NNW 4.8 km/h 22.5 km/h 81 % 0 mm
03:50 4.3 °C 1.2 °C 1017.2 hPa NW 6.4 km/h 22.5 km/h 80 % 0 mm
03:55 4.1 °C 1 °C 1016.8 hPa NW 9.7 km/h 22.5 km/h 80 % 0 mm
04:00 3.9 °C 0.9 °C 1017.2 hPa WNW 6.4 km/h 19.3 km/h 81 % 0 mm
04:05 3.9 °C 0.9 °C 1017.2 hPa NW 6.4 km/h 17.7 km/h 81 % 0 mm
04:10 3.8 °C 0.8 °C 1017.2 hPa NW 12.9 km/h 17.7 km/h 81 % 0 mm
04:15 3.6 °C 0.6 °C 1017.2 hPa WNW 6.4 km/h 16.1 km/h 81 % 0 mm
04:20 3.5 °C 0.5 °C 1017.5 hPa NNE 12.9 km/h 16.1 km/h 81 % 0 mm
04:25 3.3 °C 0.5 °C 1017.5 hPa NW 8 km/h 19.3 km/h 82 % 0 mm
04:30 2.9 °C 0.3 °C 1017.2 hPa NW 9.7 km/h 20.9 km/h 83 % 0 mm
04:35 2.7 °C 0.1 °C 1017.2 hPa NW 14.5 km/h 25.7 km/h 83 % 0 mm
04:40 2.6 °C 0 °C 1017.2 hPa NW 8 km/h 25.7 km/h 83 % 0 mm
04:45 2.6 °C 0 °C 1017.5 hPa WNW 9.7 km/h 25.7 km/h 83 % 0 mm
04:50 2.5 °C -0.1 °C 1017.5 hPa NW 9.7 km/h 25.7 km/h 83 % 0 mm
04:55 2.3 °C -0.3 °C 1017.5 hPa WNW 12.9 km/h 27.4 km/h 83 % 0 mm
05:00 2.3 °C -0.3 °C 1017.5 hPa NNW 6.4 km/h 27.4 km/h 83 % 0 mm
05:05 2.3 °C -0.3 °C 1017.8 hPa NW 11.3 km/h 27.4 km/h 83 % 0 mm
05:10 2.3 °C -0.5 °C 1017.5 hPa WNW 9.7 km/h 27.4 km/h 82 % 0 mm
05:15 2.2 °C -0.6 °C 1017.5 hPa North 20.9 km/h 27.4 km/h 82 % 0 mm
05:20 2.2 °C -0.6 °C 1017.5 hPa NW 9.7 km/h 27.4 km/h 82 % 0 mm
05:25 2.1 °C -0.7 °C 1017.5 hPa NNW 6.4 km/h 25.7 km/h 82 % 0 mm
05:30 2.1 °C -0.7 °C 1018.2 hPa NW 8 km/h 25.7 km/h 82 % 0 mm
05:35 2.1 °C -0.7 °C 1018.2 hPa NNW 8 km/h 25.7 km/h 82 % 0 mm
05:40 2.1 °C -0.7 °C 1018.2 hPa North 11.3 km/h 20.9 km/h 82 % 0 mm
05:45 2 °C -0.7 °C 1018.2 hPa WNW 3.2 km/h 20.9 km/h 82 % 0 mm
05:50 2 °C -0.7 °C 1018.2 hPa NW 6.4 km/h 20.9 km/h 82 % 0 mm
05:55 2 °C -0.7 °C 1018.2 hPa NNW 6.4 km/h 20.9 km/h 82 % 0 mm
06:01 2 °C -0.7 °C 1018.5 hPa NW 9.7 km/h 20.9 km/h 82 % 0 mm
06:06 2 °C -0.7 °C 1018.8 hPa WNW 6.4 km/h 20.9 km/h 82 % 0 mm
06:11 1.9 °C -0.8 °C 1018.8 hPa NW 6.4 km/h 20.9 km/h 82 % 0 mm
06:16 1.9 °C -0.8 °C 1018.8 hPa NNW 9.7 km/h 17.7 km/h 82 % 0 mm
06:21 1.8 °C -0.9 °C 1018.8 hPa NW 8 km/h 17.7 km/h 82 % 0 mm
06:26 1.7 °C -1 °C 1018.8 hPa NNW 8 km/h 17.7 km/h 82 % 0 mm
06:31 1.6 °C -0.6 °C 1019.2 hPa NNW 6.4 km/h 19.3 km/h 85 % 0 mm
06:36 1.3 °C -0.6 °C 1019.9 hPa NNW 8 km/h 19.3 km/h 87 % 0.25 mm
06:41 1.2 °C -0.6 °C 1019.5 hPa NW 11.3 km/h 22.5 km/h 88 % 0.51 mm
06:46 1.1 °C -0.7 °C 1019.2 hPa NW 6.4 km/h 22.5 km/h 88 % 0.51 mm
06:51 1.1 °C -0.7 °C 1019.2 hPa NNW 8 km/h 27.4 km/h 88 % 0.51 mm
06:56 1.1 °C -0.7 °C 1019.2 hPa West 6.4 km/h 27.4 km/h 88 % 0.51 mm
07:01 1.1 °C -0.7 °C 1018.8 hPa NNW 16.1 km/h 27.4 km/h 88 % 0.51 mm
07:06 1.1 °C -0.7 °C 1018.8 hPa NNW 8 km/h 22.5 km/h 88 % 0.51 mm
07:11 1.1 °C -0.7 °C 1018.8 hPa NW 6.4 km/h 20.9 km/h 88 % 0.51 mm
07:16 1.1 °C -0.8 °C 1018.8 hPa NW 12.9 km/h 24.1 km/h 87 % 0.51 mm
07:21 1.1 °C -0.8 °C 1018.8 hPa NNW 9.7 km/h 24.1 km/h 87 % 0.51 mm
07:26 1.1 °C -0.7 °C 1018.8 hPa NNW 4.8 km/h 24.1 km/h 88 % 0.51 mm
07:31 1.1 °C -0.8 °C 1019.2 hPa West 8 km/h 24.1 km/h 87 % 0.51 mm
07:36 1.1 °C -0.8 °C 1019.2 hPa NW 4.8 km/h 22.5 km/h 87 % 0.25 mm
07:41 1.1 °C -0.7 °C 1018.8 hPa NNE 11.3 km/h 22.5 km/h 88 % 0 mm
07:46 1.1 °C -0.7 °C 1019.2 hPa NNW 9.7 km/h 22.5 km/h 88 % 0 mm
07:51 1.1 °C -0.7 °C 1019.5 hPa NNE 20.9 km/h 20.9 km/h 88 % 0 mm
07:56 1.1 °C -0.7 °C 1019.2 hPa NNW 6.4 km/h 20.9 km/h 88 % 0 mm
08:01 1.1 °C -0.7 °C 1019.2 hPa NNW 8 km/h 22.5 km/h 88 % 0 mm
08:06 1.1 °C -0.7 °C 1019.2 hPa WNW 3.2 km/h 22.5 km/h 88 % 0 mm
08:11 1.1 °C -0.7 °C 1019.2 hPa NNW 9.7 km/h 22.5 km/h 88 % 0 mm
08:16 1.1 °C -0.7 °C 1019.9 hPa NNW 8 km/h 19.3 km/h 88 % 0 mm
08:21 1.1 °C -0.7 °C 1019.9 hPa NNW 6.4 km/h 24.1 km/h 88 % 0 mm
08:26 1.1 °C -0.7 °C 1019.5 hPa NNW 11.3 km/h 24.1 km/h 88 % 0 mm
08:31 1.1 °C -0.7 °C 1019.5 hPa WNW 1.6 km/h 24.1 km/h 88 % 0 mm
08:36 1.1 °C -0.7 °C 1019.9 hPa NNW 1.6 km/h 17.7 km/h 88 % 0 mm
08:41 1.1 °C -0.7 °C 1019.5 hPa NW 6.4 km/h 17.7 km/h 88 % 0 mm
08:46 1.1 °C -0.7 °C 1019.9 hPa NW 8 km/h 17.7 km/h 88 % 0 mm
08:51 1.2 °C -0.6 °C 1019.9 hPa NW 4.8 km/h 17.7 km/h 88 % 0 mm
08:56 1.2 °C -0.6 °C 1019.9 hPa NW 6.4 km/h 17.7 km/h 88 % 0 mm
09:01 1.1 °C -0.7 °C 1019.9 hPa NW 8 km/h 24.1 km/h 88 % 0 mm
09:06 1.2 °C -0.6 °C 1019.9 hPa NW 8 km/h 24.1 km/h 88 % 0 mm
09:11 1.1 °C -0.8 °C 1019.9 hPa NNW 8 km/h 24.1 km/h 87 % 0 mm
09:16 1.1 °C -0.8 °C 1020.2 hPa NW 4.8 km/h 19.3 km/h 87 % 0 mm
09:21 1.1 °C -0.8 °C 1019.9 hPa NNW 6.4 km/h 19.3 km/h 87 % 0 mm
09:26 1.1 °C -0.8 °C 1020.2 hPa NNW 6.4 km/h 19.3 km/h 87 % 0 mm
09:31 1.2 °C -0.7 °C 1020.2 hPa WNW 4.8 km/h 19.3 km/h 87 % 0 mm
09:36 1.2 °C -0.6 °C 1020.2 hPa NW 8 km/h 19.3 km/h 88 % 0 mm
09:41 1.2 °C -0.6 °C 1019.9 hPa North 9.7 km/h 16.1 km/h 88 % 0 mm
09:46 0.9 °C -0.6 °C 1019.9 hPa NNW 6.4 km/h 16.1 km/h 90 % 1.27 mm
09:51 0.8 °C -0.5 °C 1020.5 hPa NW 1.6 km/h 16.1 km/h 91 % 1.78 mm
09:56 0.7 °C -0.5 °C 1020.9 hPa NW 1.6 km/h 16.1 km/h 92 % 1.78 mm
10:01 0.8 °C -0.4 °C 1020.9 hPa NW 1.6 km/h 16.1 km/h 92 % 1.78 mm
10:06 0.8 °C -0.2 °C 1021.2 hPa NW 1.6 km/h 16.1 km/h 93 % 1.78 mm
10:11 0.8 °C -0.2 °C 1020.2 hPa NW 3.2 km/h 12.9 km/h 93 % 1.78 mm
10:16 0.8 °C -0.4 °C 1021.2 hPa NNW 6.4 km/h 14.5 km/h 92 % 1.78 mm
10:21 0.8 °C -0.4 °C 1021.6 hPa NNW 6.4 km/h 14.5 km/h 92 % 1.78 mm
10:26 0.9 °C -0.3 °C 1021.2 hPa WNW 3.2 km/h 14.5 km/h 92 % 1.78 mm
10:31 0.8 °C -0.5 °C 1021.6 hPa NW 3.2 km/h 11.3 km/h 91 % 1.78 mm
10:36 0.9 °C -0.4 °C 1021.6 hPa NNW 6.4 km/h 14.5 km/h 91 % 1.78 mm
10:41 0.9 °C -0.4 °C 1021.6 hPa NW 4.8 km/h 14.5 km/h 91 % 1.78 mm
10:46 0.9 °C -0.6 °C 1021.2 hPa NW 3.2 km/h 14.5 km/h 90 % 0.51 mm
10:51 1 °C -0.5 °C 1021.2 hPa NW 4.8 km/h 14.5 km/h 90 % 0 mm
10:56 1.1 °C -0.4 °C 1020.9 hPa West 4.8 km/h 14.5 km/h 90 % 0 mm
11:01 1.2 °C -0.3 °C 1020.9 hPa NW 4.8 km/h 14.5 km/h 90 % 0 mm
11:06 1.2 °C -0.4 °C 1021.2 hPa NW 9.7 km/h 16.1 km/h 89 % 0 mm
11:11 1.2 °C -0.3 °C 1021.2 hPa NW 8 km/h 16.1 km/h 90 % 0 mm
11:16 1.2 °C -0.4 °C 1021.2 hPa NNW 6.4 km/h 16.1 km/h 89 % 0 mm
11:17 1.2 °C -0.4 °C 1021.2 hPa NNE 8 km/h 16.1 km/h 89 % 0 mm
11:22 1.2 °C -0.6 °C 1021.6 hPa NNW 4.8 km/h 16.1 km/h 88 % 0 mm
11:27 1.2 °C -0.6 °C 1020.9 hPa NNW 8 km/h 16.1 km/h 88 % 0 mm
11:32 1.2 °C -0.7 °C 1020.9 hPa NW 6.4 km/h 12.9 km/h 87 % 0 mm
11:37 1.2 °C -0.7 °C 1021.2 hPa North 4.8 km/h 17.7 km/h 87 % 0 mm
11:42 1.2 °C -0.7 °C 1021.2 hPa WNW 4.8 km/h 17.7 km/h 87 % 0 mm
11:47 1.2 °C -0.7 °C 1021.2 hPa NNW 6.4 km/h 17.7 km/h 87 % 0 mm
11:52 1.1 °C -0.8 °C 1020.9 hPa NW 9.7 km/h 17.7 km/h 87 % 0 mm
11:57 1 °C -0.8 °C 1021.2 hPa WNW 11.3 km/h 17.7 km/h 88 % 0.25 mm
12:02 0.9 °C -0.7 °C 1020.9 hPa WNW 4.8 km/h 17.7 km/h 89 % 0.25 mm
12:07 0.9 °C -0.6 °C 1020.5 hPa NW 4.8 km/h 17.7 km/h 90 % 0.51 mm
12:12 0.8 °C -0.7 °C 1020.9 hPa NW 9.7 km/h 17.7 km/h 90 % 0.51 mm
12:17 0.8 °C -0.8 °C 1020.5 hPa NW 11.3 km/h 17.7 km/h 89 % 0.51 mm
12:22 0.7 °C -0.8 °C 1020.5 hPa NW 6.4 km/h 16.1 km/h 90 % 0.51 mm
12:27 0.8 °C -0.7 °C 1020.9 hPa NNW 8 km/h 16.1 km/h 90 % 0.51 mm
12:32 0.7 °C -0.9 °C 1020.9 hPa NW 14.5 km/h 17.7 km/h 89 % 0.51 mm
12:33 0.6 °C -1 °C 1020.9 hPa WNW 8 km/h 17.7 km/h 89 % 0.51 mm
12:38 0.6 °C -0.9 °C 1020.5 hPa NNW 6.4 km/h 20.9 km/h 90 % 0.51 mm
12:43 0.6 °C -0.9 °C 1020.9 hPa NNW 8 km/h 20.9 km/h 90 % 0.51 mm
12:48 0.6 °C -0.9 °C 1021.2 hPa NW 3.2 km/h 20.9 km/h 90 % 0.51 mm
12:53 0.6 °C -0.9 °C 1021.2 hPa NW 6.4 km/h 17.7 km/h 90 % 0.51 mm
12:54 0.6 °C -0.9 °C 1021.2 hPa North 4.8 km/h 17.7 km/h 90 % 0.51 mm
12:59 0.6 °C -0.9 °C 1021.2 hPa NW 12.9 km/h 17.7 km/h 90 % 0.25 mm
13:04 0.6 °C -0.9 °C 1020.9 hPa NW 9.7 km/h 16.1 km/h 90 % 0.25 mm
13:09 0.4 °C -1 °C 1020.9 hPa NW 4.8 km/h 16.1 km/h 90 % 0 mm
13:14 0.4 °C -0.9 °C 1020.9 hPa NW 8 km/h 16.1 km/h 91 % 0.25 mm
13:19 0.3 °C -0.8 °C 1020.9 hPa WNW 3.2 km/h 20.9 km/h 92 % 0.51 mm
13:24 0.3 °C -1 °C 1020.9 hPa WNW 9.7 km/h 20.9 km/h 91 % 0.51 mm
13:29 0.3 °C -0.8 °C 1020.9 hPa NW 11.3 km/h 20.9 km/h 92 % 0.51 mm
13:34 0.2 °C -0.9 °C 1021.2 hPa NW 12.9 km/h 20.9 km/h 92 % 0.51 mm
13:39 0.2 °C -0.9 °C 1020.9 hPa West 4.8 km/h 20.9 km/h 92 % 0.51 mm
13:44 0.2 °C -0.9 °C 1021.2 hPa NNW 4.8 km/h 20.9 km/h 92 % 0.76 mm
13:49 0.2 °C -0.9 °C 1020.9 hPa NNW 11.3 km/h 19.3 km/h 92 % 0.76 mm
13:54 0.2 °C -0.9 °C 1020.9 hPa NW 4.8 km/h 19.3 km/h 92 % 0.76 mm
13:59 0.3 °C -0.8 °C 1020.9 hPa WNW 12.9 km/h 17.7 km/h 92 % 0.76 mm
14:05 0.2 °C -1.1 °C 1021.2 hPa NNW 11.3 km/h 17.7 km/h 91 % 0.76 mm
14:10 0.3 °C -1 °C 1021.2 hPa NNW 11.3 km/h 19.3 km/h 91 % 0.76 mm
14:15 0.4 °C -0.9 °C 1020.9 hPa NW 9.7 km/h 19.3 km/h 91 % 0.25 mm
14:20 0.5 °C -0.9 °C 1021.2 hPa North 9.7 km/h 17.7 km/h 90 % 0.25 mm
14:25 0.5 °C -0.9 °C 1021.6 hPa NW 3.2 km/h 20.9 km/h 90 % 0.25 mm
14:30 0.5 °C -1.3 °C 1021.6 hPa West 8 km/h 20.9 km/h 88 % 0.25 mm
14:35 0.6 °C -1.2 °C 1021.6 hPa WNW 4.8 km/h 20.9 km/h 88 % 0.25 mm
14:40 0.7 °C -0.9 °C 1021.6 hPa NW 6.4 km/h 20.9 km/h 89 % 0 mm
14:45 0.6 °C -1 °C 1021.6 hPa North 8 km/h 19.3 km/h 89 % 0 mm
14:50 0.6 °C -1 °C 1021.6 hPa NW 11.3 km/h 19.3 km/h 89 % 0 mm
14:55 0.7 °C -0.9 °C 1021.9 hPa NW 14.5 km/h 17.7 km/h 89 % 0 mm
15:00 0.7 °C -1.1 °C 1021.6 hPa NW 11.3 km/h 25.7 km/h 88 % 0 mm
15:03 0.7 °C -1.2 °C 1021.6 hPa NW 9.7 km/h 25.7 km/h 87 % 0 mm
15:08 0.7 °C -1.2 °C 1021.6 hPa NNW 11.3 km/h 25.7 km/h 87 % 0 mm
15:13 0.7 °C -1.2 °C 1021.6 hPa NW 14.5 km/h 25.7 km/h 87 % 0 mm
15:18 0.8 °C -1.1 °C 1021.6 hPa WNW 12.9 km/h 20.9 km/h 87 % 0 mm
15:23 0.9 °C -1.2 °C 1021.6 hPa NNW 4.8 km/h 17.7 km/h 86 % 0 mm
15:28 1.1 °C -0.8 °C 1021.6 hPa WNW 11.3 km/h 17.7 km/h 87 % 0 mm
15:33 1.2 °C -1 °C 1021.9 hPa NNW 4.8 km/h 14.5 km/h 85 % 0 mm
15:38 1.1 °C -1.5 °C 1022.2 hPa NW 11.3 km/h 16.1 km/h 83 % 0 mm
15:43 1.1 °C -1.3 °C 1022.2 hPa NNW 3.2 km/h 20.9 km/h 84 % 0 mm
15:48 1.1 °C -1.5 °C 1022.2 hPa North 11.3 km/h 24.1 km/h 83 % 0 mm
15:53 1.1 °C -1.6 °C 1022.2 hPa NW 12.9 km/h 24.1 km/h 82 % 0 mm
15:58 0.9 °C -1.8 °C 1022.6 hPa NNW 4.8 km/h 24.1 km/h 82 % 0 mm
16:03 0.9 °C -2 °C 1022.9 hPa WNW 14.5 km/h 22.5 km/h 81 % 0 mm
16:08 0.8 °C -2.3 °C 1022.9 hPa NW 14.5 km/h 22.5 km/h 80 % 0 mm
16:13 0.8 °C -2.3 °C 1023.2 hPa NNW 12.9 km/h 22.5 km/h 80 % 0 mm
16:18 0.8 °C -2.3 °C 1023.2 hPa NNW 8 km/h 22.5 km/h 80 % 0 mm
16:23 0.8 °C -2.6 °C 1023.6 hPa NW 8 km/h 22.5 km/h 78 % 0 mm
16:28 0.8 °C -2.8 °C 1023.6 hPa NW 19.3 km/h 22.5 km/h 77 % 0 mm
16:33 0.8 °C -2.6 °C 1023.9 hPa NNW 12.9 km/h 24.1 km/h 78 % 0 mm
16:38 0.8 °C -2.8 °C 1023.9 hPa NW 9.7 km/h 25.7 km/h 77 % 0 mm
16:44 0.8 °C -2.8 °C 1023.9 hPa NNE 9.7 km/h 25.7 km/h 77 % 0 mm
16:49 0.8 °C -2.8 °C 1024.3 hPa NW 4.8 km/h 25.7 km/h 77 % 0 mm
16:54 0.9 °C -2.7 °C 1024.3 hPa NNE 8 km/h 22.5 km/h 77 % 0 mm
16:59 0.9 °C -2.5 °C 1024.3 hPa NNW 1.6 km/h 22.5 km/h 78 % 0 mm
17:04 0.9 °C -2.5 °C 1024.3 hPa NW 6.4 km/h 16.1 km/h 78 % 0 mm
17:09 0.9 °C -2.7 °C 1024.3 hPa NNW 11.3 km/h 16.1 km/h 77 % 0 mm
17:14 0.9 °C -2.9 °C 1024.3 hPa NW 8 km/h 19.3 km/h 76 % 0 mm
17:19 0.9 °C -2.9 °C 1024.6 hPa NNW 17.7 km/h 19.3 km/h 76 % 0 mm
17:24 0.8 °C -2.9 °C 1024.6 hPa NNW 11.3 km/h 19.3 km/h 76 % 0 mm
17:29 0.8 °C -2.9 °C 1024.9 hPa NW 9.7 km/h 22.5 km/h 76 % 0 mm
17:34 0.8 °C -2.8 °C 1024.9 hPa NW 11.3 km/h 22.5 km/h 77 % 0 mm
17:39 0.7 °C -3.2 °C 1025.3 hPa NW 20.9 km/h 22.5 km/h 75 % 0 mm
17:44 0.7 °C -3 °C 1025.6 hPa WNW 11.3 km/h 22.5 km/h 76 % 0 mm
17:49 0.6 °C -3.5 °C 1025.6 hPa NW 8 km/h 22.5 km/h 74 % 0 mm
17:54 0.6 °C -3.5 °C 1025.6 hPa North 12.9 km/h 22.5 km/h 74 % 0 mm
17:59 0.5 °C -3.6 °C 1026 hPa North 8 km/h 25.7 km/h 74 % 0 mm
18:04 0.5 °C -3.6 °C 1026 hPa West 8 km/h 25.7 km/h 74 % 0 mm
18:09 0.5 °C -3.4 °C 1026 hPa NW 9.7 km/h 25.7 km/h 75 % 0 mm
18:14 0.4 °C -3.7 °C 1026 hPa NNW 1.6 km/h 22.5 km/h 74 % 0 mm
18:19 0.5 °C -3.4 °C 1026 hPa WNW 12.9 km/h 22.5 km/h 75 % 0 mm
18:24 0.6 °C -3.3 °C 1026 hPa NW 17.7 km/h 19.3 km/h 75 % 0 mm
18:29 0.4 °C -3.5 °C 1026.3 hPa NNW 20.9 km/h 20.9 km/h 75 % 0 mm
18:34 0.4 °C -3.5 °C 1026.3 hPa NNW 8 km/h 20.9 km/h 75 % 0 mm
18:39 0.4 °C -3.5 °C 1026.3 hPa North 12.9 km/h 20.9 km/h 75 % 0 mm
18:44 0.4 °C -3.7 °C 1026.3 hPa NW 12.9 km/h 20.9 km/h 74 % 0 mm
18:49 0.3 °C -3.8 °C 1026.6 hPa NW 8 km/h 17.7 km/h 74 % 0 mm
18:54 0.3 °C -3.6 °C 1026.6 hPa NW 9.7 km/h 22.5 km/h 75 % 0 mm
18:59 0.1 °C -4 °C 1027 hPa NW 9.7 km/h 22.5 km/h 74 % 0 mm
19:04 0 °C -3.9 °C 1027.3 hPa NW 6.4 km/h 22.5 km/h 75 % 0 mm
19:09 -0.1 °C -4.2 °C 1027.7 hPa NW 3.2 km/h 22.5 km/h 74 % 0 mm
19:14 -0.2 °C -4.3 °C 1027.7 hPa NNW 11.3 km/h 22.5 km/h 74 % 0 mm
19:20 -0.3 °C -4.4 °C 1027.7 hPa NNW 19.3 km/h 20.9 km/h 74 % 0 mm
19:25 -0.3 °C -4.4 °C 1027.7 hPa NNW 20.9 km/h 27.4 km/h 74 % 0 mm
19:30 -0.5 °C -4.6 °C 1027.7 hPa NW 12.9 km/h 27.4 km/h 74 % 0 mm
19:35 -0.6 °C -4.7 °C 1028 hPa North 14.5 km/h 27.4 km/h 74 % 0 mm
19:40 -0.7 °C -4.8 °C 1028 hPa NNW 9.7 km/h 24.1 km/h 74 % 0 mm
19:45 -0.7 °C -4.6 °C 1028 hPa NNW 17.7 km/h 24.1 km/h 75 % 0 mm
19:50 -0.8 °C -4.7 °C 1028 hPa NNW 8 km/h 24.1 km/h 75 % 0 mm
19:55 -0.8 °C -4.7 °C 1028.3 hPa NW 9.7 km/h 22.5 km/h 75 % 0 mm
20:00 -0.8 °C -4.7 °C 1028.7 hPa NW 8 km/h 22.5 km/h 75 % 0 mm
20:05 -0.8 °C -4.7 °C 1028.7 hPa NW 9.7 km/h 20.9 km/h 75 % 0 mm
20:10 -0.9 °C -4.8 °C 1028.7 hPa NNW 16.1 km/h 20.9 km/h 75 % 0 mm
20:15 -0.9 °C -4.8 °C 1028.7 hPa NW 6.4 km/h 19.3 km/h 75 % 0 mm
20:20 -0.9 °C -4.8 °C 1028.7 hPa NW 12.9 km/h 17.7 km/h 75 % 0 mm
20:25 -1 °C -4.9 °C 1029 hPa WNW 8 km/h 19.3 km/h 75 % 0 mm
20:30 -1.1 °C -5 °C 1029 hPa NNW 4.8 km/h 19.3 km/h 75 % 0 mm
20:35 -1.1 °C -5 °C 1029.3 hPa NNW 14.5 km/h 20.9 km/h 75 % 0 mm
20:40 -1.1 °C -4.8 °C 1029.3 hPa NW 4.8 km/h 20.9 km/h 76 % 0 mm
20:45 -1.1 °C -4.6 °C 1029.3 hPa NNW 9.7 km/h 20.9 km/h 77 % 0 mm
20:50 -1.1 °C -4.6 °C 1029.3 hPa NW 3.2 km/h 16.1 km/h 77 % 0 mm
20:55 -1.2 °C -4.7 °C 1029.3 hPa NNW 3.2 km/h 16.1 km/h 77 % 0 mm
21:00 -1.2 °C -4.7 °C 1029.3 hPa NW 6.4 km/h 16.1 km/h 77 % 0 mm
21:05 -1.2 °C -4.7 °C 1029.7 hPa NW 8 km/h 16.1 km/h 77 % 0 mm
21:10 -1.4 °C -5.1 °C 1029.3 hPa NW 4.8 km/h 16.1 km/h 76 % 0 mm
21:15 -1.5 °C -5.2 °C 1029.7 hPa NW 14.5 km/h 19.3 km/h 76 % 0 mm
21:20 -1.6 °C -5.4 °C 1029.7 hPa NW 4.8 km/h 20.9 km/h 75 % 0 mm
21:25 -1.6 °C -5.4 °C 1030 hPa NNW 6.4 km/h 24.1 km/h 75 % 0 mm
21:30 -1.7 °C -5.4 °C 1030 hPa North 19.3 km/h 24.1 km/h 76 % 0 mm
21:36 -1.7 °C -5.4 °C 1030 hPa NNE 8 km/h 24.1 km/h 76 % 0 mm
21:41 -1.8 °C -5.3 °C 1030 hPa NNW 6.4 km/h 19.3 km/h 77 % 0 mm
21:46 -1.8 °C -5.3 °C 1030 hPa NW 4.8 km/h 19.3 km/h 77 % 0 mm
21:51 -1.9 °C -5.4 °C 1030.4 hPa WNW 4.8 km/h 14.5 km/h 77 % 0 mm
21:56 -1.9 °C -5.4 °C 1030.4 hPa NW 3.2 km/h 14.5 km/h 77 % 0 mm
22:01 -2 °C -5.3 °C 1030.4 hPa NW 6.4 km/h 14.5 km/h 78 % 0 mm
22:06 -2.1 °C -5.4 °C 1030.4 hPa NW 6.4 km/h 12.9 km/h 78 % 0 mm
22:11 -2.1 °C -5.4 °C 1030.4 hPa NNW 9.7 km/h 14.5 km/h 78 % 0 mm
22:16 -2.1 °C -5.4 °C 1030.7 hPa NW 4.8 km/h 14.5 km/h 78 % 0 mm
22:21 -2.2 °C -5.5 °C 1030.7 hPa NNW 8 km/h 14.5 km/h 78 % 0 mm
22:26 -2.2 °C -5.5 °C 1031 hPa WNW 1.6 km/h 14.5 km/h 78 % 0 mm
22:31 -2.2 °C -5.7 °C 1031 hPa NW 4.8 km/h 20.9 km/h 77 % 0 mm
22:36 -2.3 °C -5.8 °C 1031 hPa NNW 3.2 km/h 20.9 km/h 77 % 0 mm
22:41 -2.3 °C -5.6 °C 1031 hPa NNW 9.7 km/h 20.9 km/h 78 % 0 mm
22:46 -2.3 °C -5.6 °C 1031 hPa NW 8 km/h 17.7 km/h 78 % 0 mm
22:51 -2.4 °C -5.7 °C 1031.4 hPa NW 12.9 km/h 19.3 km/h 78 % 0 mm
22:56 -2.4 °C -5.7 °C 1031.4 hPa NNW 4.8 km/h 19.3 km/h 78 % 0 mm
23:01 -2.6 °C -5.7 °C 1031.4 hPa Calm   19.3 km/h 79 % 0 mm
23:06 -2.6 °C -5.7 °C 1031.4 hPa NW 6.4 km/h 14.5 km/h 79 % 0 mm
23:11 -2.7 °C -5.7 °C 1031.4 hPa NNE 3.2 km/h 12.9 km/h 80 % 0 mm
23:16 -2.7 °C -5.7 °C 1031.4 hPa NW 3.2 km/h 11.3 km/h 80 % 0 mm
23:21 -2.9 °C -6 °C 1031.4 hPa North 8 km/h 19.3 km/h 79 % 0 mm
23:26 -3.1 °C -6.4 °C 1031.7 hPa NNW 4.8 km/h 20.9 km/h 78 % 0 mm
23:31 -3.2 °C -6.3 °C 1031.7 hPa WNW 6.4 km/h 20.9 km/h 79 % 0 mm
23:36 -3.2 °C -6.3 °C 1031.7 hPa North 8 km/h 20.9 km/h 79 % 0 mm
23:41 -3.3 °C -6.4 °C 1031.7 hPa West 3.2 km/h 19.3 km/h 79 % 0 mm
23:46 -3.3 °C -6.3 °C 1031.7 hPa WNW 4.8 km/h 19.3 km/h 80 % 0 mm
23:51 -3.4 °C -6.4 °C 1031.7 hPa NW 9.7 km/h 17.7 km/h 80 % 0 mm
23:56 -3.3 °C -6.3 °C 1031.7 hPa NW 3.2 km/h 17.7 km/h 80 % 0 mm
Spring, Texas: Villages of Bridgestone
Compliments of Weather Underground - 3 mb

Script developed by  Jim McMurry - jmcmurry@mwt.net Adapted for the template by  Wim van der Kuil - Leuven-Template.eu

You find our weather info also at:

UK Metoffice

WeatherCloud

Weather Underground

Mid-South Weather Network

AWEKAS

Citizen Weather Observer Program (CWOP)

HAMweather, WeatherForYou, PWS Weather

Equipment we use:

Weather-station
Davis Vantage Vue

Weather-program
Meteohub

Weather-server
Debian 7.9 x86 (Guest)

Provider
DreamHost

Davis Vantage Vue

Meteohub

Debian 7.9 x86 (Guest)

DreamHost